{"data":{"norad_id":55168,"intl_designator":"2023-004AE","name":"ONEWEB-0627","alt_names":[],"object_type":"PAYLOAD","status":"ACTIVE","operator":null,"country":"UK","launch_date":"2023-01-10","launch_site_code":"AFETR","launch_vehicle":null,"mission":null,"orbit_class":"UNKNOWN","rcs_meters":null,"size_class":null,"mass_kg":null,"dimensions":null,"purposes":["comms"],"wikipedia_slug":null,"has_3d_model":false,"image_url":null,"decayed_at":null,"tle_current":{"epoch":"2026-09-20T05:02:29.374080Z","epoch_age_seconds":47078,"freshness":"FRESH","line1":"1 55168U 23004AE  26263.21006220  .00000058  00000+0  11652-3 0  9996","line2":"2 55168  87.9200 347.0059 0002205 111.1809 248.9558 13.17649843180096","mean_motion":13.17649843,"eccentricity":0.0002205,"inclination_deg":87.92,"raan_deg":347.0059,"arg_perigee_deg":111.1809,"mean_anomaly_deg":248.9558,"bstar":0.00011652,"rev_number":18009,"period_min":109.28548336646,"perigee_km":1192.0404380706,"apogee_km":1195.379622611,"semimajor_km":7571.8470303408,"source":"CELESTRAK","updated_at":"2026-09-20T09:00:44.756134Z"}}}